FW3266 Weather Reports


Display with metric or nautical units.
time (UTC)temp
F
wind
direction
speed
MPH
gust
MPH
rain 1hr
in
rain 24hr
in
rain mn
in
humidity
%
barometer
mb
20200404224632 41 91 1.0 3.0 0.00 0.14 0.09 73 1016.2
20200404224133 41 91 1.0 3.0 0.00 0.14 0.09 73 1016.2
20200404223635 41 91 1.0 3.0 0.00 0.14 0.09 73 1016.2
20200404223128 41 93 1.0 4.0 0.00 0.14 0.09 72 1016.3
20200404222626 42 93 2.0 6.0 0.00 0.14 0.09 72 1016.2
20200404222126 42 65 1.0 6.0 0.00 0.15 0.09 72 1016.1
20200404221627 42 94 1.0 3.0 0.00 0.15 0.09 72 1016.0
20200404221127 42 128 2.0 5.0 0.00 0.15 0.09 71 1016.1
20200404220630 42 78 2.0 5.0 0.00 0.15 0.09 71 1016.0
20200404220125 42 74 2.0 6.0 0.00 0.15 0.09 71 1016.0
20200404215622 43 61 2.0 6.0 0.00 0.15 0.09 71 1015.9
20200404215121 43 60 3.0 7.0 0.00 0.16 0.09 71 1015.8
20200404214620 43 86 3.0 7.0 0.00 0.16 0.09 70 1015.9
20200404214120 43 61 2.0 6.0 0.00 0.16 0.09 71 1015.9
20200404213623 43 92 2.0 6.0 0.00 0.16 0.09 70 1015.9
20200404213116 43 61 2.0 6.0 0.00 0.16 0.09 70 1015.9
20200404212613 43 126 2.0 6.0 0.00 0.16 0.09 71 1015.8
20200404212115 43 68 2.0 6.0 0.00 0.17 0.09 70 1016.0
20200404211623 43 126 2.0 4.0 0.00 0.17 0.09 71 1015.8
20200404211113 43 70 2.0 4.0 0.00 0.17 0.09 70 1015.8
20200404210615 43 143 1.0 3.0 0.00 0.17 0.09 70 1015.9
20200404210109 43 138 2.0 6.0 0.00 0.17 0.09 70 1015.7
20200404205608 44 99 2.0 6.0 0.00 0.17 0.09 70 1015.7
20200404205111 44 80 2.0 6.0 0.00 0.17 0.09 70 1015.8
20200404204608 43 84 3.0 5.0 0.00 0.18 0.09 70 1015.7
20200404204108 43 71 3.0 6.0 0.00 0.18 0.09 70 1015.8
20200404203612 43 63 3.0 7.0 0.00 0.18 0.09 69 1015.8
20200404203104 43 86 3.0 7.0 0.00 0.18 0.09 69 1015.8
20200404202606 44 80 3.0 5.0 0.00 0.18 0.09 71 1015.8
20200404202107 44 55 3.0 8.0 0.00 0.18 0.09 70 1015.7
20200404201605 44 38 3.0 8.0 0.00 0.18 0.09 69 1015.8
20200404201104 44 92 3.0 8.0 0.00 0.18 0.09 69 1015.8
20200404200607 44 96 3.0 7.0 0.00 0.18 0.09 69 1015.8
20200404200100 44 60 3.0 7.0 0.00 0.19 0.09 69 1015.8
20200404195601 44 129 2.0 8.0 0.00 0.19 0.09 70 1015.8
20200404195103 44 40 2.0 8.0 0.00 0.19 0.09 69 1015.8
20200404194601 44 19 2.0 8.0 0.00 0.19 0.09 70 1015.8
20200404194101 44 59 3.0 10.0 0.00 0.20 0.09 71 1015.8
20200404193603 44 49 4.0 10.0 0.00 0.20 0.09 70 1015.9
20200404193055 44 76 4.0 9.0 0.00 0.20 0.09 70 1016.0
20200404192555 43 59 5.0 9.0 0.00 0.21 0.09 71 1016.3
20200404192054 43 46 5.0 10.0 0.00 0.21 0.09 72 1016.3
20200404191554 43 61 5.0 10.0 0.00 0.21 0.09 72 1016.5
20200404191054 43 38 5.0 10.0 0.00 0.22 0.09 71 1016.5
20200404190554 43 15 5.0 14.0 0.00 0.22 0.09 71 1016.5
20200404190054 43 55 6.0 14.0 0.00 0.22 0.09 71 1016.6
20200404185555 43 94 5.0 10.0 0.00 0.22 0.09 70 1016.6
20200404185054 44 43 5.0 13.0 0.00 0.22 0.09 70 1016.5
20200404184554 44 41 6.0 13.0 0.00 0.23 0.09 71 1016.5
20200404184054 44 85 5.0 11.0 0.00 0.23 0.09 70 1016.5
20200404183558 43 11 6.0 13.0 0.00 0.23 0.09 72 1016.3
20200404183048 43 26 6.0 13.0 0.00 0.23 0.09 71 1016.5
20200404182555 43 38 5.0 13.0 0.00 0.23 0.09 71 1016.6
20200404182048 43 39 6.0 13.0 0.00 0.23 0.09 72 1016.6
20200404181548 43 74 6.0 13.0 0.00 0.23 0.09 71 1016.7
20200404181049 43 0 6.0 11.0 0.00 0.23 0.09 72 1016.7
20200404180551 43 44 6.0 13.0 0.00 0.24 0.09 71 1016.7
20200404180044 42 51 6.0 13.0 0.00 0.24 0.09 72 1016.7
20200404175544 42 72 6.0 13.0 0.00 0.24 0.09 72 1016.7
20200404175044 42 74 7.0 13.0 0.00 0.24 0.09 72 1016.7
20200404174544 42 53 7.0 12.0 0.00 0.24 0.09 72 1016.7
20200404174044 42 38 7.0 13.0 0.00 0.24 0.09 72 1016.7
20200404173544 42 42 7.0 13.0 0.00 0.24 0.09 73 1016.7
20200404173046 43 52 6.0 13.0 0.00 0.24 0.09 73 1016.8
20200404172539 43 48 7.0 14.0 0.00 0.24 0.09 72 1016.8
20200404172038 43 30 7.0 14.0 0.00 0.24 0.09 72 1016.8
20200404171538 43 34 7.0 18.0 0.00 0.24 0.09 72 1016.7
20200404171038 43 34 7.0 18.0 0.00 0.24 0.09 72 1016.7
20200404170538 42 45 7.0 14.0 0.00 0.24 0.09 73 1016.8
20200404170040 42 60 8.0 14.0 0.00 0.24 0.09 73 1016.7
20200404165533 42 24 8.0 15.0 0.00 0.24 0.09 73 1016.7
20200404165032 42 355 7.0 15.0 0.00 0.24 0.09 74 1016.8
20200404164533 42 79 7.0 13.0 0.00 0.24 0.09 74 1016.8
20200404164030 42 5 6.0 18.0 0.00 0.24 0.09 75 1016.8
20200404163528 42 28 7.0 18.0 0.00 0.24 0.09 75 1016.9
20200404163030 41 45 7.0 16.0 0.00 0.24 0.09 75 1017.0
20200404162524 41 25 7.0 15.0 0.00 0.24 0.09 74 1017.0
20200404162023 41 10 7.0 15.0 0.00 0.24 0.09 74 1017.0
20200404161522 41 49 6.0 15.0 0.00 0.24 0.09 74 1017.1
20200404161023 41 5 6.0 15.0 0.00 0.24 0.09 74 1017.3
20200404160523 41 31 8.0 16.0 0.00 0.24 0.09 75 1017.1
20200404160024 41 67 8.0 16.0 0.00 0.24 0.09 74 1017.2
20200404155519 41 56 7.0 16.0 0.00 0.24 0.09 74 1017.2
20200404155020 41 18 7.0 16.0 0.00 0.24 0.09 74 1017.0
20200404154521 42 53 7.0 15.0 0.00 0.24 0.09 74 1017.1
20200404154020 42 62 7.0 15.0 0.00 0.24 0.09 74 1017.1
20200404153521 42 115 7.0 17.0 0.00 0.24 0.09 75 1017.0
20200404153022 41 26 8.0 17.0 0.00 0.24 0.09 75 1017.1
20200404152507 41 38 7.0 15.0 0.00 0.24 0.09 75 1017.1
20200404152006 41 355 7.0 13.0 0.00 0.24 0.09 75 1017.1
20200404151506 41 71 7.0 17.0 0.00 0.24 0.09 75 1017.2
20200404151005 41 57 7.0 17.0 0.00 0.24 0.09 75 1017.1
20200404150511 41 68 8.0 17.0 0.00 0.24 0.09 75 1017.1
20200404150011 41 24 8.0 17.0 0.00 0.24 0.09 75 1017.0
20200404145501 41 33 8.0 15.0 0.00 0.24 0.09 75 1017.1
20200404145000 41 43 8.0 15.0 0.00 0.24 0.09 75 1017.0
20200404144500 41 340 9.0 17.0 0.00 0.24 0.09 75 1017.0
20200404144000 41 49 9.0 17.0 0.00 0.24 0.09 75 1017.1
20200404143459 41 349 8.0 16.0 0.00 0.24 0.09 75 1017.0
20200404143004 41 49 8.0 16.0 0.00 0.24 0.09 76 1017.0
20200404142455 41 24 8.0 15.0 0.00 0.25 0.09 75 1016.9
20200404141954 41 336 8.0 17.0 0.00 0.25 0.09 76 1017.0
20200404141454 40 103 8.0 17.0 0.00 0.25 0.09 76 1017.1
20200404140954 40 40 8.0 16.0 0.00 0.25 0.09 76 1017.0
20200404140454 40 22 9.0 16.0 0.00 0.25 0.09 76 1017.0
20200404135956 41 43 9.0 17.0 0.00 0.25 0.09 76 1016.8
20200404135450 41 85 9.0 19.0 0.00 0.25 0.09 76 1016.8
20200404134948 41 20 8.0 19.0 0.00 0.25 0.09 76 1016.7
20200404134448 40 22 9.0 16.0 0.00 0.25 0.09 76 1016.6
20200404133947 41 47 9.0 18.0 0.00 0.25 0.09 76 1016.7
20200404133448 41 13 9.0 20.0 0.00 0.25 0.09 76 1016.6
20200404132950 41 63 10.0 20.0 0.00 0.25 0.09 75 1016.5
20200404132442 41 69 9.0 19.0 0.00 0.25 0.09 76 1016.4
20200404131941 41 42 8.0 17.0 0.00 0.25 0.09 76 1016.3
20200404131442 41 50 8.0 22.0 0.00 0.25 0.09 76 1016.3
20200404130942 41 55 9.0 22.0 0.00 0.25 0.09 76 1016.2
20200404130442 41 52 10.0 20.0 0.00 0.25 0.09 76 1016.1
20200404125945 41 74 10.0 21.0 0.00 0.25 0.09 76 1016.1
20200404125437 41 15 10.0 21.0 0.00 0.26 0.09 76 1016.1
20200404124936 41 22 10.0 17.0 0.00 0.26 0.09 76 1016.0
20200404124436 40 39 9.0 17.0 0.00 0.26 0.09 76 1016.0
20200404123935 40 5 9.0 19.0 0.00 0.26 0.09 76 1016.0
20200404123436 40 53 10.0 22.0 0.00 0.26 0.09 76 1015.9
20200404122938 40 0 10.0 27.0 0.00 0.26 0.09 76 1015.9
20200404122431 40 355 10.0 27.0 0.00 0.27 0.09 76 1016.0
20200404121931 40 51 9.0 21.0 0.00 0.27 0.09 76 1015.8
20200404121432 40 336 9.0 21.0 0.00 0.27 0.09 76 1015.8
20200404120932 40 13 10.0 23.0 0.00 0.27 0.09 76 1015.6
20200404120444 40 45 10.0 23.0 0.00 0.28 0.09 77 1015.8
20200404115933 40 30 10.0 24.0 0.00 0.28 0.09 77 1015.7
20200404115435 40 355 9.0 24.0 0.00 0.29 0.09 77 1015.6
20200404114927 40 55 9.0 22.0 0.00 0.30 0.09 77 1015.6
20200404114426 40 61 10.0 22.0 0.00 0.30 0.09 76 1015.4
20200404113928 40 38 10.0 21.0 0.00 0.30 0.09 77 1015.4
20200404113426 40 55 10.0 22.0 0.00 0.31 0.09 77 1015.3
20200404112926 40 59 10.0 23.0 0.00 0.32 0.09 77 1015.4
20200404112428 40 31 11.0 23.0 0.00 0.32 0.09 77 1015.3
20200404111925 40 24 11.0 23.0 0.00 0.33 0.09 77 1015.1
20200404111425 40 34 10.0 22.0 0.00 0.34 0.09 77 1015.2
20200404110929 40 12 10.0 19.0 0.00 0.34 0.09 77 1015.1
20200404110426 40 44 11.0 23.0 0.00 0.35 0.09 77 1015.1
20200404105926 40 344 11.0 26.0 0.00 0.35 0.09 77 1014.9
20200404105426 40 63 11.0 26.0 0.00 0.36 0.09 77 1014.8
20200404104925 40 13 11.0 26.0 0.00 0.36 0.09 77 1014.7
20200404104428 40 54 11.0 26.0 0.00 0.37 0.09 77 1014.7
20200404103921 40 42 11.0 25.0 0.00 0.37 0.09 78 1014.5
20200404103422 40 5 12.0 24.0 0.00 0.37 0.09 78 1014.3
20200404102924 40 5 11.0 25.0 0.00 0.38 0.09 78 1014.3
20200404102421 40 83 11.0 25.0 0.00 0.39 0.09 78 1014.1
20200404101922 40 5 12.0 29.0 0.00 0.40 0.09 78 1014.0
20200404101425 40 88 11.0 29.0 0.00 0.41 0.09 78 1014.0
20200404100917 41 42 10.0 22.0 0.00 0.42 0.09 78 1013.8
20200404100417 41 29 11.0 22.0 0.00 0.42 0.09 78 1013.8
20200404095920 41 5 11.0 23.0 0.00 0.43 0.09 78 1013.7
20200404095417 41 355 11.0 23.0 0.00 0.43 0.09 78 1013.7
20200404094917 41 26 11.0 25.0 0.00 0.44 0.09 78 1013.6
20200404094420 41 59 11.0 25.0 0.00 0.44 0.09 79 1013.5
20200404093915 41 68 10.0 19.0 0.00 0.45 0.09 79 1013.5
20200404093415 41 5 11.0 19.0 0.00 0.45 0.09 79 1013.6
20200404092916 41 34 12.0 25.0 0.00 0.45 0.09 79 1013.5
20200404092417 41 87 12.0 25.0 0.00 0.45 0.09 79 1013.4
20200404091916 41 71 13.0 25.0 0.00 0.46 0.09 79 1013.4
20200404091415 41 55 13.0 30.0 0.00 0.46 0.09 79 1013.4
20200404090915 41 23 13.0 30.0 0.00 0.46 0.09 79 1013.2
20200404090415 41 37 12.0 26.0 0.00 0.47 0.09 78 1013.2
20200404085917 41 26 12.0 26.0 0.00 0.47 0.09 78 1013.0
20200404085411 41 44 13.0 29.0 0.00 0.47 0.09 78 1013.0
20200404084911 41 59 12.0 29.0 0.00 0.47 0.09 79 1012.9
20200404084411 41 42 12.0 27.0 0.00 0.47 0.09 79 1013.0
20200404083911 41 40 13.0 27.0 0.00 0.48 0.09 79 1012.9
20200404083412 41 5 11.0 25.0 0.00 0.48 0.09 79 1013.0
20200404082911 41 65 10.0 19.0 0.00 0.48 0.09 79 1013.0
20200404082413 42 56 12.0 28.0 0.00 0.49 0.09 79 1012.9
20200404081906 41 55 12.0 28.0 0.00 0.49 0.09 79 1012.9
20200404081405 42 49 11.0 24.0 0.00 0.50 0.09 79 1012.9
20200404080905 42 317 11.0 25.0 0.00 0.50 0.09 79 1012.9
20200404080405 42 24 11.0 25.0 0.00 0.50 0.09 79 1012.8
20200404075906 42 17 11.0 24.0 0.00 0.50 0.09 79 1013.0
20200404075407 42 26 11.0 24.0 0.00 0.51 0.09 79 1012.8
20200404074901 42 98 11.0 21.0 0.00 0.51 0.09 79 1012.8
20200404074359 42 24 11.0 27.0 0.00 0.52 0.09 79 1012.8
20200404073859 42 19 11.0 27.0 0.00 0.52 0.09 79 1012.8
20200404073359 42 15 12.0 26.0 0.00 0.53 0.09 80 1012.8
20200404072859 42 82 12.0 26.0 0.00 0.54 0.09 80 1012.7
20200404072401 42 61 11.0 23.0 0.01 0.55 0.09 80 1012.6
20200404071857 42 55 11.0 22.0 0.01 0.56 0.09 81 1012.6
20200404071358 42 24 12.0 21.0 0.01 0.57 0.09 81 1012.6
20200404070857 42 40 11.0 21.0 0.02 0.57 0.09 81 1012.5
20200404070357 42 85 11.0 21.0 0.02 0.57 0.09 82 1012.4
20200404065857 42 63 11.0 21.0 0.02 0.58 0.09 82 1012.3
20200404065358 42 64 12.0 26.0 0.03 0.59 0.09 82 1012.4
20200404064900 42 86 11.0 26.0 0.03 0.59 0.09 83 1012.3
20200404064352 42 21 11.0 23.0 0.03 0.59 0.09 83 1012.3
20200404063851 42 75 11.0 23.0 0.03 0.60 0.09 83 1012.2
20200404063351 42 28 10.0 19.0 0.04 0.60 0.09 84 1012.1
20200404062851 42 65 9.0 18.0 0.04 0.60 0.09 84 1012.0
20200404062352 42 97 10.0 21.0 0.03 0.59 0.09 85 1012.0
20200404061854 42 46 11.0 21.0 0.03 0.59 0.08 85 1011.9
20200404061432 42 53 11.0 19.0 0.03 0.59 0.08 85 1011.9
20200404060848 42 49 10.0 19.0 0.02 0.58 0.07 85 1012.0
20200404060345 42 26 10.0 20.0 0.03 0.58 0.07 85 1011.8
20200404055845 42 56 11.0 25.0 0.03 0.59 0.07 85 1011.8
20200404055345 42 9 10.0 25.0 0.02 0.58 0.06 85 1011.8
20200404054847 42 44 10.0 19.0 0.02 0.58 0.06 85 1011.8
20200404054341 42 53 11.0 19.0 0.02 0.58 0.06 85 1011.8
20200404053839 42 13 11.0 20.0 0.03 0.59 0.06 85 1011.7
20200404053339 42 44 11.0 23.0 0.03 0.59 0.05 85 1011.6
20200404052838 42 0 11.0 23.0 0.03 0.60 0.05 85 1011.7
20200404052339 42 28 11.0 21.0 0.04 0.60 0.05 85 1011.7
20200404051843 42 5 12.0 21.0 0.04 0.60 0.05 85 1011.6
20200404051337 42 74 12.0 23.0 0.04 0.60 0.05 85 1011.6
20200404050835 42 16 12.0 26.0 0.04 0.60 0.05 85 1011.5
20200404050333 42 19 12.0 26.0 0.04 0.59 0.05 85 1011.5
20200404045833 42 65 11.0 22.0 0.04 0.59 0.04 85 1011.5
20200404045333 42 35 11.0 24.0 0.04 0.59 0.04 85 1011.4
20200404044835 42 51 11.0 24.0 0.04 0.60 0.04 85 1011.4
20200404044328 42 59 10.0 19.0 0.04 0.60 0.04 85 1011.4
20200404043827 42 50 10.0 20.0 0.03 0.59 0.03 85 1011.3
20200404043327 42 32 10.0 20.0 0.02 0.58 0.02 85 1011.2
20200404042827 42 54 11.0 28.0 0.02 0.58 0.02 85 1011.2
20200404042327 42 59 10.0 28.0 0.01 0.57 0.02 85 1011.1
20200404041829 42 93 11.0 21.0 0.01 0.57 0.01 85 1011.1
20200404041323 42 120 11.0 20.0 0.01 0.58 0.01 85 1011.1
20200404040823 42 10 11.0 20.0 0.01 0.58 0.01 85 1011.1
20200404040323 42 34 11.0 19.0 0.00 0.57 0.01 85 1010.9
20200404035823 42 44 11.0 19.0 0.01 0.57 0.57 85 1010.8
20200404035324 42 37 12.0 22.0 0.01 0.57 0.57 85 1010.8
20200404034823 42 42 11.0 28.0 0.01 0.57 0.57 85 1010.8
20200404034325 42 76 10.0 28.0 0.01 0.58 0.57 85 1010.6
20200404033819 42 45 11.0 28.0 0.01 0.58 0.57 85 1010.6
20200404033317 42 125 12.0 28.0 0.01 0.58 0.57 85 1010.6
20200404032817 42 24 11.0 28.0 0.01 0.58 0.57 85 1010.7
20200404032318 42 46 11.0 22.0 0.01 0.58 0.57 86 1010.6
20200404031817 42 32 12.0 22.0 0.01 0.58 0.57 86 1010.6
20200404031320 42 64 12.0 22.0 0.01 0.58 0.57 86 1010.7
20200404030812 42 41 12.0 23.0 0.01 0.58 0.57 86 1010.6
20200404030311 42 26 11.0 23.0 0.02 0.59 0.57 86 1010.6
20200404025811 42 89 11.0 27.0 0.01 0.58 0.57 86 1010.5
20200404025311 42 27 11.0 27.0 0.01 0.58 0.56 86 1010.5
20200404024811 42 17 11.0 24.0 0.01 0.58 0.56 86 1010.5
20200404024314 42 39 11.0 24.0 0.01 0.58 0.56 86 1010.4
20200404023809 42 40 11.0 23.0 0.01 0.58 0.56 86 1010.5
20200404023309 42 61 11.0 23.0 0.01 0.58 0.56 86 1010.4
20200404022809 42 107 12.0 23.0 0.01 0.59 0.56 86 1010.4
20200404022310 42 54 12.0 25.0 0.01 0.59 0.56 86 1010.3
20200404021809 42 22 11.0 25.0 0.02 0.59 0.56 86 1010.1
20200404021309 42 15 11.0 21.0 0.02 0.59 0.56 86 1010.2
20200404020812 42 31 12.0 22.0 0.02 0.60 0.56 86 1010.1
20200404020305 42 15 11.0 22.0 0.01 0.59 0.55 86 1010.0
20200404015803 42 25 11.0 23.0 0.01 0.59 0.55 86 1010.0
20200404015303 43 33 12.0 27.0 0.01 0.59 0.55 86 1009.9
20200404014803 43 13 12.0 27.0 0.01 0.60 0.55 86 1010.1
20200404014303 43 63 12.0 27.0 0.01 0.61 0.55 86 1009.9
20200404013805 43 58 12.0 30.0 0.01 0.61 0.55 86 1009.9
20200404013259 43 42 13.0 30.0 0.01 0.62 0.55 86 1009.8
20200404012757 43 64 13.0 25.0 0.01 0.62 0.55 86 1009.8
20200404012257 43 0 12.0 29.0 0.01 0.62 0.55 86 1009.6
20200404011758 43 43 12.0 29.0 0.01 0.61 0.54 86 1009.5
20200404011257 43 84 11.0 23.0 0.01 0.61 0.54 86 1009.5
20200404010800 43 26 11.0 22.0 0.01 0.62 0.54 86 1009.4
20200404010252 43 49 12.0 25.0 0.01 0.62 0.54 86 1009.4
20200404005751 43 42 12.0 25.0 0.01 0.62 0.54 86 1009.2
20200404005250 43 28 12.0 24.0 0.01 0.63 0.54 86 1009.0
20200404004759 43 25 12.0 26.0 0.01 0.63 0.54 86 1009.0
20200404004258 43 22 11.0 26.0 0.01 0.63 0.54 86 1008.9
20200404003754 43 23 11.0 22.0 0.01 0.63 0.54 86 1009.0
20200404003247 43 355 11.0 23.0 0.02 0.63 0.54 86 1008.9
20200404002745 43 9 11.0 23.0 0.02 0.63 0.54 86 1008.7
20200404002245 43 16 11.0 25.0 0.02 0.63 0.54 86 1008.7
20200404001745 43 78 12.0 25.0 0.01 0.63 0.53 86 1008.6
20200404001244 43 51 12.0 26.0 0.01 0.63 0.53 86 1008.4
20200404000748 43 67 12.0 26.0 0.01 0.63 0.53 86 1008.4
20200404000241 43 115 11.0 22.0 0.01 0.63 0.53 86 1008.3
20200403235740 43 57 11.0 22.0 0.01 0.63 0.53 86 1008.2
20200403235238 43 67 11.0 23.0 0.01 0.63 0.53 86 1008.0
20200403234738 43 37 11.0 23.0 0.01 0.63 0.53 86 1007.9
20200403234239 43 54 11.0 25.0 0.01 0.63 0.53 86 1007.7
20200403233743 43 51 11.0 25.0 0.01 0.63 0.53 86 1007.6
20200403233234 43 55 11.0 25.0 0.00 0.62 0.52 86 1007.6
20200403232732 43 100 11.0 25.0 0.00 0.62 0.52 86 1007.5
20200403232232 43 219 12.0 24.0 0.00 0.62 0.52 86 1007.4
20200403231733 43 78 13.0 25.0 0.01 0.62 0.52 86 1007.4
20200403231233 43 355 13.0 28.0 0.01 0.62 0.52 86 1007.3
20200403230736 43 28 13.0 28.0 0.01 0.62 0.52 86 1007.2
20200403230231 43 96 12.0 26.0 0.01 0.62 0.52 86 1007.1
20200403225732 43 31 12.0 27.0 0.01 0.62 0.52 86 1007.2
20200403225231 43 45 13.0 29.0 0.02 0.62 0.52 86 1007.1